Rocky Mount, NC

9:24 PM EDT on August 22, 2017 (GMT -0400)
Rocky Mount-Wilson Regional

Weather History for KRWI - October, 2012

Change the Weather History Date:

Thursday, October 11, 2012

  Actual Average Record
Temperature  
Mean Temperature 56 °F -  
Max Temperature 66 °F 74 °F 88 °F (1954)
Min Temperature 45 °F 49 °F 32 °F (2000)
Degree Days  
Heating Degree Days 9    
Growing Degree Days 6 (Base 50)    
Moisture  
Dew Point 44 °F    
Average Humidity 71    
Maximum Humidity 93    
Minimum Humidity 43    
Precipitation  
Precipitation 0.00 in - - ()
Sea Level Pressure  
Sea Level Pressure 30.24 in    
Wind  
Wind Speed 4 mph (NNW)    
Max Wind Speed 9 mph    
Max Gust Speed -    
Visibility 10 miles    
Events      
Averages and records for this station are not official NWS values.
T = Trace of Precipitation, MM = Missing Value Source: NWS Daily Summary

Daily Weather History Graph

Daily Weather History Graph

Search for Another Location

Airport or City:

Trip Planner

Search our weather history database for the weather conditions in past years. The results will help you decide how hot, cold, wet, or windy it might be!

Date:

Astronomy

Oct. 11, 2012 Rise Set
Actual Time 7:15 AM EDT 6:40 PM EDT
Civil Twilight 6:49 AM EDT 7:06 PM EDT
Nautical Twilight 6:19 AM EDT 7:35 PM EDT
Astronomical Twilight 5:50 AM EDT 8:05 PM EDT
Moon 2:59 AM EDT (10/11) 4:09 PM EDT (10/11)
Length of Visible Light 12h 16m
Length of Day
11h 25m
Waning Crescent, 18% of the Moon is Illuminated
Oct 11
Waning Crescent
Oct 15
New
Oct 21
First Quarter
Oct 29
Full
Nov 6
Last Quarter

Hourly Weather History & Observations

Time (EDT) Temp. Dew Point Humidity Pressure Visibility Wind Dir Wind Speed Gust Speed Precip Events Conditions
12:53 AM 55.9 °F 51.1 °F 84% 30.11 in 10.0 mi West 3.5 mph - N/A   Clear
1:53 AM 55.0 °F 48.9 °F 80% 30.14 in 10.0 mi NNW 5.8 mph - N/A   Clear
2:53 AM 54.0 °F 46.9 °F 77% 30.15 in 10.0 mi NW 5.8 mph - N/A   Clear
3:53 AM 52.0 °F 46.0 °F 80% 30.16 in 10.0 mi NNW 5.8 mph - N/A   Clear
4:53 AM 51.1 °F 44.1 °F 77% 30.18 in 10.0 mi NNW 5.8 mph - N/A   Clear
5:53 AM 48.9 °F 44.1 °F 83% 30.20 in 10.0 mi NNW 5.8 mph - N/A   Clear
6:53 AM 48.9 °F 43.0 °F 80% 30.23 in 10.0 mi NNW 5.8 mph - N/A   Clear
7:53 AM 46.9 °F 43.0 °F 86% 30.26 in 10.0 mi Calm Calm - N/A   Clear
8:53 AM 53.1 °F 44.1 °F 71% 30.28 in 10.0 mi North 4.6 mph - N/A   Clear
9:53 AM 57.9 °F 44.1 °F 60% 30.31 in 10.0 mi NNE 4.6 mph - N/A   Clear
10:53 AM 60.1 °F 39.9 °F 47% 30.31 in 10.0 mi NNE 9.2 mph - N/A   Clear
11:53 AM 62.1 °F 39.9 °F 44% 30.31 in 10.0 mi NE 8.1 mph - N/A   Clear
12:53 PM 62.1 °F 39.9 °F 44% 30.29 in 10.0 mi Calm Calm - N/A   Clear
1:53 PM 64.0 °F 41.0 °F 43% 30.27 in 10.0 mi ESE 4.6 mph - N/A   Clear
2:53 PM 64.9 °F 42.1 °F 43% 30.26 in 10.0 mi WSW 4.6 mph - N/A   Clear
4:53 PM 66.0 °F 43.0 °F 43% 30.24 in 10.0 mi Calm Calm - N/A   Clear
7:53 PM 50.0 °F 46.9 °F 89% 30.25 in 10.0 mi Calm Calm - N/A   Clear
8:53 PM 48.9 °F 46.0 °F 90% 30.25 in 10.0 mi Calm Calm - N/A   Clear
9:53 PM 46.9 °F 45.0 °F 93% 30.26 in 8.0 mi Calm Calm - N/A   Clear
10:53 PM 46.0 °F 44.1 °F 93% 30.25 in 7.0 mi Calm Calm - N/A   Clear
11:53 PM 45.0 °F 43.0 °F 93% 30.24 in 5.0 mi Calm Calm - N/A   Clear